Fort Carson, CO

12:59 PM MDT on August 21, 2017 (GMT -0600)
Butts Army Air Field

Weather History for KFCS - November, 2012

Change the Weather History Date:

Friday, November 23, 2012

  Actual Average Record
Temperature  
Mean Temperature 32 °F -  
Max Temperature 45 °F 45 °F 82 °F (1998)
Min Temperature 19 °F 23 °F 11 °F (1991)
Degree Days  
Heating Degree Days 33    
Moisture  
Dew Point 13 °F    
Average Humidity 47    
Maximum Humidity 70    
Minimum Humidity 28    
Precipitation  
Precipitation 0.00 in - - ()
Sea Level Pressure  
Sea Level Pressure 30.53 in    
Wind  
Wind Speed 6 mph (SSE)    
Max Wind Speed 12 mph    
Max Gust Speed -    
Visibility 10 miles    
Events      
Averages and records for this station are not official NWS values.
T = Trace of Precipitation, MM = Missing Value Source: NWS Daily Summary

Daily Weather History Graph

Daily Weather History Graph

Search for Another Location

Airport or City:

Trip Planner

Search our weather history database for the weather conditions in past years. The results will help you decide how hot, cold, wet, or windy it might be!

Date:

Astronomy

Nov. 23, 2012 Rise Set
Actual Time 6:50 AM MST 4:40 PM MST
Civil Twilight 6:21 AM MST 5:09 PM MST
Nautical Twilight 5:48 AM MST 5:41 PM MST
Astronomical Twilight 5:17 AM MST 6:13 PM MST
Moon 1:54 PM MST (11/23) 2:14 AM MST (11/23)
Length of Visible Light 10h 47m
Length of Day
9h 50m
Waxing Gibbous, 80% of the Moon is Illuminated
Nov 23
Waxing Gibbous
Nov 28
Full
Dec 6
Last Quarter
Dec 13
New
Dec 19
First Quarter

Hourly Weather History & Observations

Time (MST) Temp. Windchill Dew Point Humidity Pressure Visibility Wind Dir Wind Speed Gust Speed Precip Events Conditions
12:58 AM 31.1 °F 26.4 °F 13.1 °F 47% 30.47 in 10.0 mi South 4.6 mph - N/A   Clear
1:58 AM 28.4 °F 24.6 °F 13.1 °F 53% 30.51 in 10.0 mi South 3.5 mph - N/A   Clear
2:58 AM 23.7 °F 16.6 °F 13.1 °F 64% 30.53 in 10.0 mi SE 5.8 mph - N/A   Clear
3:58 AM 28.8 °F 22.6 °F 13.8 °F 54% 30.52 in 10.0 mi South 5.8 mph - N/A   Clear
4:58 AM 26.4 °F - 13.6 °F 59% 30.55 in 10.0 mi SW 2.3 mph - N/A   Clear
5:58 AM 19.6 °F 14.5 °F 9.5 °F 65% 30.63 in 10.0 mi NNE 3.5 mph - N/A   Clear
6:58 AM 21.7 °F 10.2 °F 13.5 °F 70% 30.66 in 10.0 mi NNW 11.5 mph - N/A   Clear
7:58 AM 27.5 °F 22.2 °F 15.4 °F 61% 30.65 in 10.0 mi NNW 4.6 mph - N/A   Clear
8:58 AM 33.6 °F - 13.5 °F 44% 30.63 in 10.0 mi NE 2.3 mph - N/A   Clear
9:58 AM 37.4 °F 30.8 °F 13.1 °F 37% 30.64 in 10.0 mi South 9.2 mph - N/A   Clear
10:58 AM 40.1 °F 33.6 °F 12.0 °F 32% 30.59 in 10.0 mi South 10.4 mph - N/A   Clear
11:58 AM 42.3 °F 37.3 °F 12.2 °F 29% 30.56 in 10.0 mi SSE 8.1 mph - N/A   Clear
12:58 PM 43.3 °F 39.2 °F 12.6 °F 29% 30.53 in 10.0 mi Variable 6.9 mph - N/A   Clear
1:58 PM 45.1 °F 42.0 °F 13.8 °F 28% 30.51 in 10.0 mi Variable 5.8 mph - N/A   Clear
2:58 PM 45.5 °F 41.3 °F 14.4 °F 29% 30.51 in 10.0 mi SSE 8.1 mph - N/A   Clear
3:58 PM 44.1 °F 39.0 °F 14.7 °F 31% 30.48 in 10.0 mi SSE 9.2 mph - N/A   Clear
4:58 PM 37.8 °F 33.3 °F 14.0 °F 38% 30.52 in 10.0 mi SSE 5.8 mph - N/A   Clear
5:58 PM 32.9 °F - 12.4 °F 43% 30.56 in 10.0 mi SE 2.3 mph - N/A   Clear
6:58 PM 32.7 °F - 13.5 °F 45% 30.52 in 10.0 mi Calm Calm - N/A   Clear
7:58 PM 27.7 °F 19.6 °F 12.0 °F 52% 30.51 in 10.0 mi NNW 8.1 mph - N/A   Clear
8:58 PM 29.7 °F 20.1 °F 13.1 °F 50% 30.46 in 10.0 mi NNW 11.5 mph - N/A   Clear
9:58 PM 28.6 °F 19.9 °F 13.1 °F 52% 30.43 in 10.0 mi NNW 9.2 mph - N/A   Clear
10:58 PM 27.5 °F 18.0 °F 12.7 °F 54% 30.40 in 10.0 mi NW 10.4 mph - N/A   Clear
11:58 PM 27.0 °F 17.3 °F 13.1 °F 56% 30.37 in 10.0 mi NW 10.4 mph - N/A   Clear